Location: Meadowbank Aerodrome
(65.0250°N, 96.0705°W)
Time: 05:49:06
(UTC-06:00)

Cosmos 2221 - Visible Passes

Search period start: 11 December 2016 00:00
Search period end: 21 December 2016 00:00
Orbit: 595 x 616 km, 82.5° (Epoch: 10 December)

Date Brightness Start Highest point End Pass type
(mag) Time Alt. Az. Time Alt. Az. Time Alt. Az.
11 Dec 5.1 18:49:09 10° N 18:49:12 10° N 18:49:12 10° N visible
12 Dec 5.1 19:02:10 10° N 19:02:16 10° N 19:02:16 10° N visible
13 Dec 5.2 19:15:14 10° N 19:15:21 10° N 19:15:21 10° N visible
14 Dec 4.9 17:51:24 10° N 17:51:33 10° N 17:51:33 10° N visible
14 Dec 5.2 19:28:18 10° N 19:28:26 11° N 19:28:26 11° N visible
15 Dec 4.9 18:04:17 10° N 18:04:38 11° N 18:04:38 11° N visible
15 Dec 5.3 19:41:24 10° N 19:41:31 11° N 19:41:31 11° N visible
16 Dec 4.9 18:17:16 10° N 18:17:44 11° N 18:17:44 11° N visible
16 Dec 5.3 19:54:30 10° N 19:54:36 11° N 19:54:36 11° N visible
17 Dec 5.3 08:39:41 10° E 08:41:23 12° ENE 08:43:04 10° NE visible
17 Dec 4.9 18:30:17 10° N 18:30:49 12° N 18:30:49 12° N visible
17 Dec 5.4 20:07:37 10° NNW 20:07:42 10° NNW 20:07:42 10° NNW visible
18 Dec 5.1 08:51:32 10° ESE 08:54:13 16° ENE 08:56:54 10° NE visible
18 Dec 4.8 17:06:50 10° NNE 17:07:04 10° NNE 17:07:04 10° NNE visible
18 Dec 4.9 18:43:21 10° N 18:43:56 13° N 18:43:56 13° N visible
18 Dec 5.5 20:20:46 10° NNW 20:20:49 10° NNW 20:20:49 10° NNW visible
19 Dec 4.9 09:03:48 10° SE 09:07:06 21° E 09:10:25 10° NE visible
19 Dec 4.7 17:19:27 10° N 17:20:11 11° NNE 17:20:11 11° NNE visible
19 Dec 4.9 18:56:26 10° N 18:57:04 13° N 18:57:04 13° N visible
19 Dec 5.5 20:33:56 10° NNW 20:33:56 10° NNW 20:33:56 10° NNW visible
20 Dec 4.7 17:32:21 10° N 17:33:19 12° NNE 17:33:19 12° NNE visible
20 Dec 4.9 19:09:31 10° N 19:10:11 14° N 19:10:11 14° N visible
